Flag for U.S.A. Weather past 2 weeks in Costa Mesa, California, U.S.A.

Now
94 °F

Passing clouds.


Feels Like: 94 °F
Forecast: 74 / 91 °F
Wind: 7 mph from North

Location: John Wayne Airport-Orange County Airport

Current Time: Sep 15, 2014 at 6:10:17 PM

Latest Report: Sep 15, 2014 at 4:53 PM


Visibility: 10 mi

Pressure: 29.71 "Hg

Humidity: 32%

Dew point: 60 °F

Location of Costa MesaLocation

Historic Weather in Costa Mesa — Graph

°F

Costa Mesa temperature yesterday

Maximum temperature yesterday: 95 °F (at 12:53 PM)
Minimum temperature yesterday: 74 °F (at 12:53 AM)
Average temperature yesterday: 83 °F

Past Weeks' High & Low Weather Summary

 TemperatureHumidityPressure
High96 °F (Sep 15, 11:53 AM)81% (Sep 12, 4:53 AM)29.92 "Hg (Sep 12, 4:53 AM)
Low69 °F (Sep 10, 3:53 AM)25% (Sep 10, 3:53 PM)29.67 "Hg (Sep 14, 4:53 PM)
Average78 °F61%29.80 "Hg
* Reported Aug 31 4:53 PM — Sep 15 4:53 PM, Costa Mesa, Weather by CustomWeather, © 2014

Note: Actual official high and low records may vary slightly from our data, if they occured in-between our weather recording intervals... More about our weather records

Advertising

Costa Mesa weather history for previous 24 hours

 ConditionsComfort  
Time TempWeatherWind HumidityBarometerVisibility
4:53 PM
Sep 15
94 °FPassing clouds.7 mph32%29.71 "Hg10 mi
3:53 PM96 °FScattered clouds.7 mph31%29.72 "Hg10 mi
2:53 PM94 °FPassing clouds.8 mph35%29.73 "Hg10 mi
1:53 PM93 °FPassing clouds.7 mph40%29.76 "Hg10 mi
12:53 PM92 °FPassing clouds.7 mph43%29.77 "Hg10 mi
11:53 AM96 °FPassing clouds.5 mph34%29.78 "Hg10 mi
10:53 AM91 °FPassing clouds.3 mph39%29.79 "Hg10 mi
9:53 AM87 °FSunny.No wind48%29.80 "Hg10 mi
8:53 AM82 °FSunny.5 mph56%29.79 "Hg10 mi
7:53 AM79 °FSunny.3 mph62%29.79 "Hg10 mi
6:53 AM76 °FClear.No wind69%29.78 "Hg10 mi
5:53 AM77 °FPassing clouds.No wind66%29.77 "Hg10 mi
4:53 AM77 °FClear.No wind66%29.75 "Hg10 mi
3:53 AM78 °FClear.No wind64%29.75 "Hg10 mi
2:53 AM79 °FClear.No wind62%29.76 "Hg10 mi
1:53 AM79 °FClear.No wind62%29.76 "Hg10 mi
12:53 AM78 °FClear.No wind64%29.76 "Hg10 mi
11:53 PM
Sep 14
78 °FClear.6 mph66%29.76 "Hg10 mi
10:53 PM78 °FPassing clouds.6 mph66%29.76 "Hg10 mi
9:53 PM78 °FPassing clouds.9 mph62%29.74 "Hg10 mi
8:53 PM81 °FPassing clouds.7 mph54%29.72 "Hg10 mi
7:53 PM82 °FPassing clouds.5 mph55%29.70 "Hg10 mi
6:53 PM85 °FScattered clouds.7 mph48%29.68 "Hg10 mi
Weather by CustomWeather, © 2014

See weather overviewHow to use our weather pages